N180GS LFPN-LFBL

Flight info

Callsign N180GS
Flight time 1h 12m
Altitude 6000
Route AGOP2A AGOPA BALAN BALA3R
Aircraft BE36/L-VGD/C

Departure

Time 2026-04-28 20:30
Airport Toussus-le-Noble Airport (LFPN)

Arrival

Time 2026-04-28 21:43
Airport Limoges Airport (LFBL)
Time Latitude Longitude Altitude Speed Heading
2026-04-28 20:08 48.75026 2.11080 507 ft 0 kts 272°
2026-04-28 20:14 48.75026 2.11079 507 ft 0 kts 272°
2026-04-28 20:20 48.75030 2.11049 508 ft 7 kts 270°
2026-04-28 20:21 48.74980 2.10985 510 ft 14 kts 205°
2026-04-28 20:21 48.74899 2.10857 514 ft 19 kts 230°
2026-04-28 20:21 48.74849 2.10693 518 ft 18 kts 268°
2026-04-28 20:21 48.74843 2.10481 523 ft 21 kts 268°
2026-04-28 20:22 48.74838 2.10265 528 ft 19 kts 267°
2026-04-28 20:22 48.74833 2.10041 534 ft 23 kts 269°
2026-04-28 20:22 48.74832 2.09819 535 ft 16 kts 284°
2026-04-28 20:22 48.74882 2.09716 535 ft 13 kts 303°
2026-04-28 20:23 48.74928 2.09695 535 ft 3 kts 26°
2026-04-28 20:26 48.74949 2.09735 535 ft 10 kts 68°
2026-04-28 20:27 48.75025 2.09824 535 ft 13 kts 32°
2026-04-28 20:27 48.75058 2.09854 535 ft 0 kts 28°
2026-04-28 20:28 48.75058 2.09855 535 ft 0 kts 28°
2026-04-28 20:28 48.75087 2.09880 535 ft 10 kts 34°
2026-04-28 20:28 48.75145 2.09974 533 ft 14 kts 71°
2026-04-28 20:29 48.75218 2.10303 526 ft 62 kts 71°
2026-04-28 20:29 48.75397 2.11143 588 ft 96 kts 69°
2026-04-28 20:29 48.75578 2.12174 766 ft 107 kts 73°
2026-04-28 20:29 48.75828 2.13286 897 ft 118 kts 63°
2026-04-28 20:30 48.76071 2.14545 1040 ft 130 kts 71°
2026-04-28 20:30 48.76320 2.15938 1190 ft 142 kts 73°
2026-04-28 20:30 48.76571 2.17424 1338 ft 148 kts 74°
2026-04-28 20:30 48.76825 2.18940 1466 ft 148 kts 75°
2026-04-28 20:31 48.77080 2.20454 1613 ft 149 kts 76°
2026-04-28 20:31 48.77335 2.21990 1747 ft 151 kts 76°
2026-04-28 20:31 48.77593 2.23542 1876 ft 152 kts 76°
2026-04-28 20:31 48.77850 2.25082 2001 ft 150 kts 76°
2026-04-28 20:32 48.78103 2.26612 2126 ft 150 kts 76°
2026-04-28 20:32 48.78358 2.28144 2251 ft 150 kts 77°
2026-04-28 20:32 48.78610 2.29671 2375 ft 149 kts 77°
2026-04-28 20:32 48.78859 2.31171 2502 ft 148 kts 77°
2026-04-28 20:33 48.79109 2.32686 2626 ft 148 kts 77°
2026-04-28 20:33 48.79168 2.34221 2745 ft 148 kts 101°
2026-04-28 20:33 48.78708 2.35608 2871 ft 150 kts 127°
2026-04-28 20:33 48.77828 2.36489 2996 ft 156 kts 154°
2026-04-28 20:34 48.76797 2.37011 3124 ft 156 kts 155°
2026-04-28 20:34 48.75771 2.37545 3249 ft 156 kts 155°
2026-04-28 20:34 48.74746 2.38078 3374 ft 156 kts 154°
2026-04-28 20:34 48.73723 2.38609 3505 ft 155 kts 154°
2026-04-28 20:35 48.72692 2.39099 3615 ft 157 kts 162°
2026-04-28 20:35 48.71598 2.39250 3739 ft 158 kts 169°
2026-04-28 20:35 48.70504 2.39357 3865 ft 157 kts 169°
2026-04-28 20:35 48.69416 2.39480 3989 ft 157 kts 168°
2026-04-28 20:36 48.68327 2.39610 4118 ft 157 kts 168°
2026-04-28 20:36 48.67241 2.39741 4244 ft 157 kts 168°
2026-04-28 20:36 48.66157 2.39869 4369 ft 156 kts 168°
2026-04-28 20:36 48.65079 2.39999 4497 ft 155 kts 168°
2026-04-28 20:37 48.64006 2.40127 4620 ft 154 kts 168°
2026-04-28 20:37 48.62940 2.40254 4747 ft 154 kts 168°
2026-04-28 20:37 48.61873 2.40382 4882 ft 154 kts 169°
2026-04-28 20:37 48.60803 2.40510 5005 ft 154 kts 169°
2026-04-28 20:38 48.59737 2.40637 5126 ft 153 kts 169°
2026-04-28 20:38 48.58673 2.40763 5249 ft 153 kts 169°
2026-04-28 20:38 48.57611 2.40891 5374 ft 153 kts 169°
2026-04-28 20:38 48.56564 2.41015 5498 ft 153 kts 169°
2026-04-28 20:39 48.55503 2.41141 5622 ft 152 kts 169°
2026-04-28 20:39 48.54448 2.41266 5748 ft 151 kts 169°
2026-04-28 20:39 48.53401 2.41389 5873 ft 151 kts 170°
2026-04-28 20:39 48.52351 2.41051 5985 ft 162 kts 201°
2026-04-28 20:40 48.51481 2.39870 5984 ft 175 kts 225°
2026-04-28 20:40 48.50702 2.38427 5992 ft 179 kts 225°
2026-04-28 20:40 48.49902 2.36971 5997 ft 181 kts 225°
2026-04-28 20:40 48.49092 2.35506 5995 ft 182 kts 225°
2026-04-28 20:41 48.48285 2.34051 5994 ft 184 kts 225°
2026-04-28 20:41 48.47457 2.32553 5995 ft 187 kts 225°
2026-04-28 20:41 48.46618 2.31041 5995 ft 189 kts 225°
2026-04-28 20:41 48.45772 2.29515 5995 ft 189 kts 225°
2026-04-28 20:42 48.44929 2.27997 5992 ft 189 kts 225°
2026-04-28 20:42 48.44082 2.26472 5993 ft 190 kts 225°
2026-04-28 20:42 48.43232 2.24942 5992 ft 191 kts 225°
2026-04-28 20:42 48.42380 2.23409 5991 ft 191 kts 225°
2026-04-28 20:43 48.41528 2.21878 6001 ft 190 kts 225°
2026-04-28 20:43 48.40678 2.20351 5990 ft 190 kts 225°
2026-04-28 20:43 48.39840 2.18846 5992 ft 190 kts 225°
2026-04-28 20:43 48.38993 2.17326 5990 ft 189 kts 225°
2026-04-28 20:44 48.38147 2.15808 5986 ft 189 kts 224°
2026-04-28 20:44 48.37302 2.14294 5985 ft 189 kts 224°
2026-04-28 20:44 48.36459 2.12783 5984 ft 189 kts 225°
2026-04-28 20:44 48.35614 2.11270 5984 ft 189 kts 225°
2026-04-28 20:45 48.34769 2.09759 5985 ft 188 kts 224°
2026-04-28 20:45 48.33927 2.08252 5982 ft 188 kts 225°
2026-04-28 20:45 48.33085 2.06749 5982 ft 188 kts 224°
2026-04-28 20:45 48.32245 2.05247 5981 ft 187 kts 224°
2026-04-28 20:46 48.31405 2.03748 5984 ft 187 kts 224°
2026-04-28 20:46 48.30567 2.02253 5983 ft 187 kts 224°
2026-04-28 20:46 48.29625 2.01008 5982 ft 180 kts 203°
2026-04-28 20:46 48.28468 2.00430 5973 ft 173 kts 181°
2026-04-28 20:47 48.27282 2.00425 5971 ft 170 kts 173°
2026-04-28 20:47 48.26097 2.00458 5972 ft 170 kts 173°
2026-04-28 20:47 48.24913 2.00490 5974 ft 170 kts 173°
2026-04-28 20:47 48.23732 2.00525 5972 ft 170 kts 173°
2026-04-28 20:48 48.22547 2.00560 5974 ft 170 kts 173°
2026-04-28 20:48 48.21364 2.00594 5974 ft 170 kts 173°
2026-04-28 20:48 48.20179 2.00629 5972 ft 171 kts 173°
2026-04-28 20:48 48.18993 2.00664 5973 ft 171 kts 173°
2026-04-28 20:49 48.17806 2.00697 5974 ft 171 kts 173°
2026-04-28 20:49 48.16617 2.00733 5974 ft 171 kts 173°
2026-04-28 20:49 48.15425 2.00767 5975 ft 171 kts 173°
2026-04-28 20:49 48.14235 2.00802 5975 ft 171 kts 173°
2026-04-28 20:50 48.13042 2.00837 5972 ft 171 kts 173°
2026-04-28 20:50 48.11851 2.00871 5971 ft 171 kts 173°
2026-04-28 20:50 48.10660 2.00906 5971 ft 171 kts 173°
2026-04-28 20:50 48.09468 2.00941 5974 ft 171 kts 173°
2026-04-28 20:51 48.08274 2.00882 5969 ft 175 kts 185°
2026-04-28 20:51 48.07122 2.00197 5962 ft 180 kts 198°
2026-04-28 20:51 48.05974 1.99454 5970 ft 180 kts 197°
2026-04-28 20:51 48.05210 1.98965 5971 ft 180 kts 197°
2026-04-28 20:52 48.03686 1.97988 5970 ft 180 kts 197°
2026-04-28 20:52 48.02533 1.97247 5972 ft 180 kts 197°
2026-04-28 20:52 48.01381 1.96507 5972 ft 180 kts 197°
2026-04-28 20:52 48.00229 1.95768 5971 ft 180 kts 197°
2026-04-28 20:53 47.97929 1.94294 5969 ft 180 kts 197°
2026-04-28 20:53 47.96777 1.93556 5973 ft 180 kts 197°
2026-04-28 20:53 47.95625 1.92818 5971 ft 180 kts 197°
2026-04-28 20:54 47.94474 1.92082 5968 ft 180 kts 197°
2026-04-28 20:54 47.93321 1.91343 5973 ft 180 kts 197°
2026-04-28 20:54 47.92167 1.90606 5969 ft 181 kts 197°
2026-04-28 20:54 47.91012 1.89866 5972 ft 180 kts 197°
2026-04-28 20:55 47.89860 1.89131 5967 ft 180 kts 197°
2026-04-28 20:55 47.88709 1.88397 5972 ft 180 kts 197°
2026-04-28 20:55 47.87558 1.87662 5972 ft 180 kts 197°
2026-04-28 20:55 47.86409 1.86928 5971 ft 180 kts 197°
2026-04-28 20:56 47.85259 1.86197 5971 ft 180 kts 196°
2026-04-28 20:56 47.84111 1.85466 5970 ft 179 kts 196°
2026-04-28 20:56 47.82962 1.84734 5972 ft 180 kts 196°
2026-04-28 20:56 47.81813 1.84003 5965 ft 180 kts 197°
2026-04-28 20:57 47.80664 1.83272 5959 ft 180 kts 196°
2026-04-28 20:57 47.79514 1.82541 5957 ft 180 kts 197°
2026-04-28 20:57 47.78364 1.81810 5953 ft 180 kts 197°
2026-04-28 20:57 47.77227 1.81088 5958 ft 180 kts 197°
2026-04-28 20:58 47.76076 1.80357 5955 ft 180 kts 197°
2026-04-28 20:58 47.74925 1.79625 5955 ft 180 kts 197°
2026-04-28 20:58 47.73774 1.78895 5957 ft 180 kts 197°
2026-04-28 20:58 47.72621 1.78165 5954 ft 180 kts 197°
2026-04-28 20:59 47.71468 1.77434 5953 ft 180 kts 197°
2026-04-28 20:59 47.70319 1.76706 5958 ft 180 kts 197°
2026-04-28 20:59 47.69168 1.75977 5954 ft 180 kts 197°
2026-04-28 20:59 47.68015 1.75248 5956 ft 180 kts 197°
2026-04-28 21:00 47.66856 1.74515 5958 ft 180 kts 197°
2026-04-28 21:00 47.65700 1.73783 5954 ft 180 kts 197°
2026-04-28 21:00 47.64560 1.73064 5951 ft 180 kts 197°
2026-04-28 21:00 47.63407 1.72334 5956 ft 180 kts 197°
2026-04-28 21:01 47.62253 1.71606 5954 ft 180 kts 197°
2026-04-28 21:01 47.61099 1.70879 5952 ft 180 kts 197°
2026-04-28 21:01 47.59946 1.70150 5954 ft 180 kts 197°
2026-04-28 21:01 47.58792 1.69424 5953 ft 180 kts 197°
2026-04-28 21:02 47.57635 1.68695 5952 ft 181 kts 198°
2026-04-28 21:02 47.56479 1.67966 5949 ft 180 kts 198°
2026-04-28 21:02 47.55323 1.67239 5950 ft 180 kts 198°
2026-04-28 21:02 47.54167 1.66511 5949 ft 181 kts 198°
2026-04-28 21:03 47.53398 1.66027 5949 ft 181 kts 198°
2026-04-28 21:03 47.52241 1.65301 5950 ft 181 kts 198°
2026-04-28 21:03 47.50706 1.64336 5948 ft 181 kts 198°
2026-04-28 21:03 47.49925 1.63844 5946 ft 181 kts 198°
2026-04-28 21:04 47.48781 1.63127 5947 ft 180 kts 198°
2026-04-28 21:04 47.47627 1.62402 5948 ft 180 kts 198°
2026-04-28 21:04 47.46469 1.61676 5949 ft 181 kts 198°
2026-04-28 21:04 47.45312 1.60951 5946 ft 181 kts 198°
2026-04-28 21:05 47.44157 1.60227 5950 ft 181 kts 198°
2026-04-28 21:05 47.42999 1.59502 5948 ft 181 kts 198°
2026-04-28 21:05 47.41838 1.58776 5949 ft 181 kts 198°
2026-04-28 21:05 47.40679 1.58050 5946 ft 181 kts 197°
2026-04-28 21:06 47.39517 1.57324 5949 ft 181 kts 198°
2026-04-28 21:06 47.38358 1.56599 5947 ft 181 kts 198°
2026-04-28 21:06 47.37197 1.55873 5950 ft 182 kts 198°
2026-04-28 21:06 47.36032 1.55146 5948 ft 181 kts 199°
2026-04-28 21:07 47.34869 1.54420 5948 ft 181 kts 198°
2026-04-28 21:07 47.33709 1.53696 5947 ft 181 kts 199°
2026-04-28 21:07 47.32563 1.52981 5947 ft 181 kts 198°
2026-04-28 21:07 47.31405 1.52260 5947 ft 181 kts 198°
2026-04-28 21:08 47.30244 1.51536 5947 ft 181 kts 198°
2026-04-28 21:08 47.29086 1.50815 5948 ft 180 kts 198°
2026-04-28 21:08 47.27929 1.50095 5948 ft 181 kts 198°
2026-04-28 21:08 47.26770 1.49374 5949 ft 181 kts 198°
2026-04-28 21:09 47.25612 1.48654 5948 ft 181 kts 198°
2026-04-28 21:09 47.24469 1.47944 5949 ft 181 kts 198°
2026-04-28 21:09 47.23310 1.47224 5949 ft 181 kts 198°
2026-04-28 21:09 47.22155 1.46507 5950 ft 180 kts 198°
2026-04-28 21:10 47.20997 1.45788 5949 ft 181 kts 198°
2026-04-28 21:10 47.19840 1.45070 5949 ft 181 kts 198°
2026-04-28 21:10 47.18680 1.44351 5950 ft 181 kts 198°
2026-04-28 21:10 47.17519 1.43631 5950 ft 181 kts 198°
2026-04-28 21:11 47.16358 1.42912 5950 ft 181 kts 199°
2026-04-28 21:11 47.15192 1.42189 5950 ft 181 kts 199°
2026-04-28 21:11 47.14030 1.41472 5950 ft 181 kts 199°
2026-04-28 21:11 47.12869 1.40753 5946 ft 181 kts 199°
2026-04-28 21:12 47.11704 1.40033 5943 ft 181 kts 199°
2026-04-28 21:12 47.10545 1.39316 5943 ft 181 kts 199°
2026-04-28 21:12 47.09398 1.38607 5943 ft 181 kts 199°
2026-04-28 21:12 47.08238 1.37892 5942 ft 181 kts 199°
2026-04-28 21:13 47.07079 1.37176 5942 ft 181 kts 199°
2026-04-28 21:13 47.05921 1.36462 5943 ft 181 kts 199°
2026-04-28 21:13 47.04762 1.35747 5943 ft 181 kts 199°
2026-04-28 21:13 47.03604 1.35034 5943 ft 181 kts 199°
2026-04-28 21:14 47.02442 1.34318 5945 ft 181 kts 199°
2026-04-28 21:14 47.01284 1.33605 5945 ft 180 kts 199°
2026-04-28 21:14 47.00126 1.32893 5945 ft 180 kts 199°
2026-04-28 21:14 46.98965 1.32178 5945 ft 180 kts 199°
2026-04-28 21:15 46.97808 1.31467 5942 ft 180 kts 199°
2026-04-28 21:15 46.96649 1.30755 5946 ft 181 kts 198°
2026-04-28 21:15 46.95504 1.30051 5939 ft 181 kts 198°
2026-04-28 21:15 46.94339 1.29337 5940 ft 181 kts 198°
2026-04-28 21:16 46.93173 1.28621 5937 ft 181 kts 198°
2026-04-28 21:16 46.92009 1.27908 5937 ft 181 kts 198°
2026-04-28 21:16 46.90846 1.27194 5937 ft 181 kts 198°
2026-04-28 21:16 46.89682 1.26481 5937 ft 181 kts 198°
2026-04-28 21:17 46.88520 1.25769 5937 ft 181 kts 198°
2026-04-28 21:17 46.87359 1.25058 5936 ft 181 kts 198°
2026-04-28 21:17 46.86194 1.24345 5937 ft 181 kts 198°
2026-04-28 21:17 46.85030 1.23634 5936 ft 182 kts 198°
2026-04-28 21:18 46.83865 1.22922 5938 ft 182 kts 198°
2026-04-28 21:18 46.82700 1.22209 5937 ft 181 kts 198°
2026-04-28 21:18 46.81538 1.21499 5939 ft 181 kts 198°
2026-04-28 21:18 46.80373 1.20789 5939 ft 181 kts 198°
2026-04-28 21:19 46.79228 1.20089 5934 ft 181 kts 198°
2026-04-28 21:19 46.78066 1.19382 5934 ft 181 kts 198°
2026-04-28 21:19 46.76906 1.18674 5934 ft 181 kts 198°
2026-04-28 21:19 46.75745 1.17966 5934 ft 181 kts 198°
2026-04-28 21:20 46.74587 1.17262 5933 ft 180 kts 198°
2026-04-28 21:20 46.73427 1.16556 5933 ft 180 kts 198°
2026-04-28 21:20 46.72268 1.15849 5930 ft 180 kts 198°
2026-04-28 21:20 46.71106 1.15144 5931 ft 181 kts 198°
2026-04-28 21:21 46.69946 1.14438 5934 ft 181 kts 198°
2026-04-28 21:21 46.68800 1.13741 5933 ft 181 kts 198°
2026-04-28 21:21 46.67640 1.13038 5928 ft 181 kts 198°
2026-04-28 21:21 46.66481 1.12333 5928 ft 181 kts 198°
2026-04-28 21:22 46.65319 1.11629 5926 ft 181 kts 198°
2026-04-28 21:22 46.64157 1.10924 5926 ft 181 kts 198°
2026-04-28 21:22 46.62994 1.10218 5926 ft 181 kts 198°
2026-04-28 21:22 46.62224 1.09752 5926 ft 181 kts 198°
2026-04-28 21:23 46.60669 1.08811 5928 ft 181 kts 198°
2026-04-28 21:23 46.59508 1.08107 5929 ft 181 kts 198°
2026-04-28 21:23 46.58346 1.07405 5929 ft 181 kts 198°
2026-04-28 21:23 46.57184 1.06701 5928 ft 181 kts 198°
2026-04-28 21:24 46.56023 1.06001 5926 ft 181 kts 198°
2026-04-28 21:24 46.54857 1.05297 5926 ft 182 kts 197°
2026-04-28 21:24 46.53687 1.04588 5926 ft 183 kts 197°
2026-04-28 21:24 46.52522 1.03905 5925 ft 181 kts 193°
2026-04-28 21:25 46.51300 1.03756 5921 ft 174 kts 168°
2026-04-28 21:25 46.50168 1.04283 5922 ft 169 kts 150°
2026-04-28 21:25 46.49095 1.05006 5924 ft 170 kts 151°
2026-04-28 21:25 46.48016 1.05716 5923 ft 170 kts 151°
2026-04-28 21:26 46.46938 1.06427 5924 ft 170 kts 151°
2026-04-28 21:26 46.45877 1.07129 5924 ft 170 kts 151°
2026-04-28 21:26 46.44802 1.07840 5924 ft 170 kts 151°
2026-04-28 21:26 46.43728 1.08550 5924 ft 170 kts 151°
2026-04-28 21:27 46.42652 1.09260 5926 ft 170 kts 151°
2026-04-28 21:27 46.41579 1.09968 5926 ft 169 kts 151°
2026-04-28 21:27 46.40507 1.10678 5926 ft 169 kts 151°
2026-04-28 21:27 46.39435 1.11384 5926 ft 169 kts 151°
2026-04-28 21:28 46.38359 1.12093 5924 ft 170 kts 151°
2026-04-28 21:28 46.37284 1.12803 5924 ft 170 kts 151°
2026-04-28 21:28 46.36209 1.13510 5927 ft 170 kts 151°
2026-04-28 21:28 46.35137 1.14217 5927 ft 170 kts 151°
2026-04-28 21:29 46.34062 1.14924 5930 ft 170 kts 151°
2026-04-28 21:29 46.33002 1.15622 5930 ft 170 kts 151°
2026-04-28 21:29 46.31926 1.16330 5930 ft 170 kts 151°
2026-04-28 21:29 46.30847 1.17038 5930 ft 170 kts 151°
2026-04-28 21:30 46.29768 1.17746 5930 ft 171 kts 151°
2026-04-28 21:30 46.28689 1.18457 5930 ft 170 kts 151°
2026-04-28 21:30 46.27608 1.19166 5930 ft 170 kts 151°
2026-04-28 21:30 46.26528 1.19875 5923 ft 170 kts 152°
2026-04-28 21:31 46.25449 1.20582 5926 ft 170 kts 152°
2026-04-28 21:31 46.24371 1.21290 5926 ft 170 kts 152°
2026-04-28 21:31 46.23292 1.21996 5926 ft 170 kts 152°
2026-04-28 21:31 46.22212 1.22704 5926 ft 170 kts 152°
2026-04-28 21:32 46.21128 1.23414 5930 ft 171 kts 152°
2026-04-28 21:32 46.20048 1.24121 5930 ft 170 kts 152°
2026-04-28 21:32 46.18981 1.24819 5932 ft 171 kts 152°
2026-04-28 21:32 46.17900 1.25526 5932 ft 171 kts 152°
2026-04-28 21:33 46.16820 1.26232 5933 ft 170 kts 152°
2026-04-28 21:33 46.15740 1.26938 5937 ft 171 kts 152°
2026-04-28 21:33 46.14657 1.27647 5937 ft 171 kts 152°
2026-04-28 21:33 46.13571 1.28357 5936 ft 171 kts 153°
2026-04-28 21:34 46.12481 1.29069 5938 ft 171 kts 153°
2026-04-28 21:34 46.11382 1.29781 5692 ft 172 kts 153°
2026-04-28 21:34 46.10305 1.30481 5439 ft 168 kts 152°
2026-04-28 21:34 46.09247 1.31172 5187 ft 165 kts 152°
2026-04-28 21:35 46.08218 1.31843 4944 ft 163 kts 152°
2026-04-28 21:35 46.07193 1.32511 4691 ft 161 kts 152°
2026-04-28 21:35 46.06180 1.33170 4434 ft 159 kts 152°
2026-04-28 21:35 46.05172 1.33825 4178 ft 159 kts 153°
2026-04-28 21:36 46.04120 1.34286 3946 ft 160 kts 174°
2026-04-28 21:36 46.03063 1.33991 3932 ft 153 kts 200°
2026-04-28 21:36 46.02186 1.33197 3932 ft 145 kts 209°
2026-04-28 21:36 46.01352 1.32421 3931 ft 141 kts 209°
2026-04-28 21:37 46.00538 1.31654 3927 ft 139 kts 209°
2026-04-28 21:37 45.99750 1.30908 3989 ft 133 kts 208°
2026-04-28 21:37 45.98974 1.30175 3986 ft 134 kts 208°
2026-04-28 21:37 45.98191 1.29439 3940 ft 136 kts 208°
2026-04-28 21:38 45.97414 1.28702 3804 ft 132 kts 208°
2026-04-28 21:38 45.96680 1.28003 3646 ft 121 kts 208°
2026-04-28 21:38 45.95994 1.27357 3484 ft 114 kts 208°
2026-04-28 21:38 45.95350 1.26754 3322 ft 108 kts 208°
2026-04-28 21:39 45.94721 1.26164 3160 ft 109 kts 208°
2026-04-28 21:39 45.94090 1.25570 3003 ft 107 kts 209°
2026-04-28 21:39 45.93474 1.24990 2846 ft 105 kts 209°
2026-04-28 21:39 45.92897 1.24447 2693 ft 95 kts 209°
2026-04-28 21:40 45.92353 1.23938 2539 ft 92 kts 210°
2026-04-28 21:40 45.91819 1.23436 2382 ft 91 kts 210°
2026-04-28 21:40 45.91296 1.22945 2226 ft 91 kts 211°
2026-04-28 21:40 45.90764 1.22461 2065 ft 91 kts 210°
2026-04-28 21:41 45.90234 1.21981 1938 ft 89 kts 212°
2026-04-28 21:41 45.89722 1.21490 1836 ft 88 kts 214°
2026-04-28 21:41 45.89222 1.21006 1740 ft 86 kts 212°
2026-04-28 21:41 45.88722 1.20548 1661 ft 85 kts 213°
2026-04-28 21:42 45.88229 1.20069 1571 ft 88 kts 213°
2026-04-28 21:42 45.87715 1.19577 1472 ft 89 kts 214°
2026-04-28 21:42 45.87203 1.19100 1360 ft 86 kts 214°
2026-04-28 21:42 45.86738 1.18654 1310 ft 70 kts 213°
2026-04-28 21:43 45.86399 1.18334 1306 ft 49 kts 213°
2026-04-28 21:43 45.86158 1.18106 1303 ft 32 kts 213°
2026-04-28 21:43 45.86105 1.17969 1303 ft 14 kts 300°
2026-04-28 21:43 45.86136 1.17898 1302 ft 5 kts 300°
2026-04-28 21:44 45.86137 1.17895 1302 ft 0 kts 300°
2026-04-28 21:44 45.86139 1.17890 1302 ft 0 kts 301°
2026-04-28 21:44 45.86140 1.17888 1302 ft 0 kts 301°
2026-04-28 21:45 45.86145 1.17875 1302 ft 6 kts 301°
2026-04-28 21:45 45.86208 1.17845 1303 ft 15 kts 20°
2026-04-28 21:45 45.86278 1.17906 1304 ft 9 kts 36°
2026-04-28 21:45 45.86329 1.17952 1304 ft 5 kts
2026-04-28 21:46 45.86331 1.17952 1304 ft 0 kts 357°
2026-04-28 21:46 45.86339 1.17926 1304 ft 8 kts 201°
2026-04-28 21:47 45.86256 1.17888 1303 ft 18 kts 212°
2026-04-28 21:47 45.86150 1.17829 1302 ft 16 kts 203°
2026-04-28 21:47 45.86038 1.17724 1301 ft 18 kts 216°
2026-04-28 21:47 45.85995 1.17681 1300 ft 6 kts 215°
2026-04-28 21:48 45.85989 1.17674 1300 ft 0 kts 223°
2026-04-28 21:48 45.85998 1.17640 1300 ft 7 kts 308°
2026-04-28 21:48 45.86028 1.17629 1301 ft 7 kts 328°
2026-04-28 21:48 45.86021 1.17607 1300 ft 0 kts 211°